Regional Weather Roundup
Issued by NWS

Home | Current Version | Previous Version | Graphics & Text | Print | Product List | Glossary On
Versions: 1 2 3 4 5 6 7 8 9 10 11 12 13 14 15 16 17 18 19 20 21 22 23 24 25 26 27 28 29 30 31 32 33 34 35 36 37 38 39 40 41 42 43 44 45 46 47 48 49 50
000
ASUS43 KTOP 270659
RWRKS

WEATHER ROUNDUP FOR KANSAS
NATIONAL WEATHER SERVICE GOODLAND KS
200 AM CDT SUN MAY 27 2018

NOTE:  "FAIR" INDICATES FEW OR NO CLOUDS BELOW 12,000 FEET WITH NO
SIGNIFICANT WEATHER AND/OR OBSTRUCTIONS TO VISIBILITY.

KSZ001>006-013>018-027>032-041>047-270800-
NORTHWEST KANSAS

CITY           SKY/WX    TMP DP  RH WIND       PRES   REMARKS
GOODLAND       PTCLDY    69  51  52 S15       29.85S
HAYS           PTCLDY    66  59  78 S7        29.84S
HILL CITY      MOCLDY    70  58  65 S6        29.83S
RUSSELL        CLOUDY    71  63  75 S10       29.82S
$$

KSZ061>065-074>080-084>089-270800-
SOUTHWEST KANSAS

CITY           SKY/WX    TMP DP  RH WIND       PRES   REMARKS
DODGE CITY     PTCLDY    72  63  73 S15       29.87R
GARDEN CITY    CLEAR     72  60  66 SE20G26   29.86S
GREAT BEND     PTCLDY    71  65  81 S12       29.84
LIBERAL        CLEAR     70  59  68 SE10      29.87S
$$

KSZ066>073-081>083-090>101-270800-
SOUTHEAST KANSAS

CITY           SKY/WX    TMP DP  RH WIND       PRES   REMARKS
CHANUTE        CLEAR     70  67  90 S6        29.85F
COFFEYVILLE    CLEAR     71  68  90 CALM      29.84F
HUTCHINSON     PTCLDY    70  65  84 SE6       29.83F
MEDICINE LODGE   N/A     73  67  81 S5        29.84S
NEWTON         CLEAR     71  65  81 S10       29.86S
PARSONS        CLEAR     69  67  93 CALM      29.86F
WICHITA INTL   PTCLDY    69  65  86 S9        29.84F
WICHITA JABRA  CLEAR     71  67  87 S7        29.84F
WICHITA MCCONL CLEAR     71  64  81 S7        29.85F
WINFIELD       CLEAR     70  67  90 CALM      29.86S
$$

KSZ007>012-019>026-033>040-048>060-102>105-270800-
NORTHEAST KANSAS

CITY           SKY/WX    TMP DP  RH WIND       PRES   REMARKS
CONCORDIA      CLEAR     76  61  59 S13       29.81F
EMPORIA        PTCLDY    69  65  86 S6        29.84S
LAWRENCE       CLEAR     74  69  85 CALM      29.82S
MANHATTAN      CLEAR     76  66  71 SW10      29.82S
OLATHE IND     CLEAR     72  68  87 S6        29.84F
OLATHE EXE     CLEAR     72  69  90 S6        29.84S
SALINA         PTCLDY    71  64  78 S5        29.82F
TOPEKA BILLARD CLEAR     76  69  79 S3        29.81S
TOPEKA FORBES  CLEAR     74  68  81 S5        29.82S
$$



USA.gov is the U.S. government's official web portal to all federal, state and local government web resources and services.